KE0MVE Weather Reports


time (UTC)temp
C
wind
direction
speed
KPH
gust
KPH
rain 1hr
cm
rain 24hr
cm
rain mn
cm
humidity
%
barometer
mb
20260906191536 27 157 0.0 9.7 0.00 0.00 0.00 67 1016.3
20260906190036 27 70 0.0 16.1 0.00 0.00 0.00 66 1016.4
20260906184536 26 103 4.8 14.5 0.00 0.00 0.00 68 1016.3
20260906183035 27 105 4.8 14.5 0.00 0.00 0.00 67 1016.4
20260906181535 26 199 1.6 9.7 0.00 0.00 0.00 69 1016.7
20260906180031 26 113 1.6 12.9 0.00 0.00 0.00 68 1016.5
20260906174530 27 75 3.2 11.3 0.00 0.00 0.00 67 1016.5
20260906171530 26 103 4.8 12.9 0.00 0.00 0.00 69 1016.9
20260906170053 26 124 3.2 12.9 0.00 0.00 0.00 71 1017.0
20260906164523 26 77 3.2 11.3 0.00 0.00 0.00 72 1017.0
20260906163023 26 12 3.2 9.7 0.00 0.00 0.00 73 1017.2
20260906161521 25 113 0.0 8.0 0.00 0.00 0.00 73 1017.1
20260906160021 25 84 1.6 12.9 0.00 0.00 0.00 74 1017.3
20260906154522 25 113 1.6 9.7 0.00 0.00 0.00 75 1017.4
20260906153023 25 105 1.6 11.3 0.00 0.00 0.00 75 1017.5
20260906151519 25 84 1.6 14.5 0.00 0.00 0.00 77 1017.7
20260906150014 24 105 3.2 12.9 0.00 0.00 0.00 79 1017.5
20260906144510 24 108 1.6 9.7 0.00 0.00 0.00 80 1017.4
20260906143010 23 94 1.6 9.7 0.00 0.00 0.00 82 1017.3
20260906141503 22 214 1.6 9.7 0.00 0.00 0.00 85 1017.5
20260906140059 -17 0.0 0.0 0.00 0.00 0.00 1017.6
20260906134603 -17 0.0 0.0 0.00 0.00 0.00 1017.5
20260906133054 -17 0.0 0.0 0.00 0.00 0.00 1017.4
20260906131549 -17 0.0 0.0 0.00 0.00 0.00 1017.2
20260906130047 -17 0.0 0.0 0.00 0.00 0.00 1017.4
20260906124543 -17 0.0 0.0 0.00 0.00 0.00 1017.2
20260906123104 -17 0.0 0.0 0.00 0.00 0.00 1017.3
20260906121528 -17 0.0 0.0 0.00 0.00 0.00 1017.2
20260906120023 -17 0.0 0.0 0.00 0.00 0.00 1017.1
20260906114520 -17 0.0 0.0 0.00 0.00 0.00 1016.9
20260906113016 -17 0.0 0.0 0.00 0.00 0.00 1016.8
20260906111522 -17 0.0 0.0 0.00 0.00 0.00 1016.8
20260906110006 -17 0.0 0.0 0.00 0.00 0.00 1016.7
20260906104501 -17 0.0 0.0 0.00 0.00 0.00 1016.5
20260906103057 -17 0.0 0.0 0.00 0.00 0.00 1016.5
20260906101553 -17 0.0 0.0 0.00 0.00 0.00 1016.5
20260906100048 18 99 0.0 0.0 0.00 0.00 0.00 94 1016.5
20260906094556 19 95 0.0 0.0 0.00 0.00 0.00 94 1016.1
20260906093048 19 95 0.0 0.0 0.00 0.00 0.00 94 1015.9
20260906091600 19 95 0.0 1.6 0.00 0.00 0.00 93 1015.7
20260906090042 20 95 0.0 0.0 0.00 0.00 0.00 93 1015.6
20260906084542 20 95 0.0 1.6 0.00 0.00 0.00 93 1015.7
20260906083042 20 94 0.0 1.6 0.00 0.00 0.00 93 1015.6
20260906081544 20 83 0.0 1.6 0.00 0.00 0.00 93 1015.7
20260906080041 20 105 0.0 0.0 0.00 0.00 0.00 92 1015.7
20260906074546 20 106 0.0 0.0 0.00 0.00 0.00 92 1015.7
20260906073040 20 120 0.0 0.0 0.00 0.00 0.00 91 1015.7
20260906071535 20 120 0.0 0.0 0.00 0.00 0.00 91 1015.9
20260906070035 20 120 0.0 0.0 0.00 0.00 0.00 91 1016.1
20260906064536 20 120 0.0 0.0 0.00 0.00 0.00 91 1016.2
20260906063034 20 120 0.0 0.0 0.00 0.00 0.00 92 1016.2
20260906061531 20 120 0.0 0.0 0.00 0.00 0.00 92 1016.0
20260906060029 20 120 0.0 0.0 0.00 0.00 0.00 91 1016.2
20260906054538 20 120 0.0 0.0 0.00 0.00 0.00 89 1016.0
20260906053025 20 119 0.0 0.0 0.00 0.00 0.00 89 1016.1
20260906051526 20 120 0.0 0.0 0.00 0.00 0.00 88 1016.0
20260906050020 21 120 0.0 0.0 0.00 0.00 0.00 87 1016.1
20260906044520 21 120 0.0 0.0 0.00 0.00 0.00 87 1016.1
20260906043028 21 120 0.0 0.0 0.00 0.00 0.00 86 1016.3
20260906041518 22 120 0.0 0.0 0.00 0.00 0.00 84 1016.3
20260906040017 22 120 0.0 0.0 0.00 0.00 0.00 83 1016.2
20260906034517 22 120 0.0 0.0 0.00 0.00 0.00 82 1016.3
20260906033023 22 120 0.0 0.0 0.00 0.00 0.00 79 1016.4
20260906031517 23 120 0.0 0.0 0.00 0.00 0.00 79 1016.5
20260906030020 23 120 0.0 0.0 0.00 0.00 0.00 77 1016.5
20260906024514 23 129 0.0 0.0 0.00 0.00 0.00 76 1016.4
20260906023015 23 65 0.0 0.0 0.00 0.00 0.00 76 1016.4
20260906021512 23 101 0.0 0.0 0.00 0.00 0.00 76 1016.0
20260906020012 24 101 0.0 0.0 0.00 0.00 0.00 75 1015.5
20260906014513 24 127 0.0 0.0 0.00 0.00 0.00 75 1015.1
20260906013012 25 81 0.0 1.6 0.00 0.00 0.00 74 1014.6
20260906011511 25 113 0.0 3.2 0.00 0.00 0.00 73 1014.4
20260906010010 25 86 0.0 3.2 0.00 0.00 0.00 71 1014.1
20260906004509 26 114 0.0 3.2 0.00 0.00 0.00 68 1013.8
20260906003009 27 97 0.0 8.0 0.00 0.00 0.00 66 1013.6
20260906001516 27 100 0.0 3.2 0.00 0.00 0.00 64 1013.4
20260906000026 28 106 0.0 11.3 0.00 0.00 0.00 63 1013.4
20260905234508 28 91 1.6 9.7 0.00 0.00 0.00 62 1013.6
20260905233105 28 120 1.6 8.0 0.00 0.00 0.00 62 1013.6
20260905231507 28 48 1.6 9.7 0.00 0.00 0.00 62 1013.6
20260905230005 28 97 0.0 9.7 0.00 0.00 0.00 63 1013.4
20260905224505 28 131 0.0 9.7 0.00 0.00 0.00 62 1013.2
20260905223007 29 86 3.2 14.5 0.00 0.00 0.00 61 1013.2
20260905221502 29 63 3.2 16.1 0.00 0.00 0.00 60 1013.2
20260905220101 29 108 0.0 11.3 0.00 0.00 0.00 62 1013.6
20260905214602 29 88 3.2 9.7 0.00 0.00 0.00 60 1013.5
20260905213102 29 145 3.2 11.3 0.00 0.00 0.00 62 1013.5
20260905211559 29 117 3.2 9.7 0.00 0.00 0.00 62 1013.9
20260905210113 28 94 1.6 12.9 0.00 0.00 0.00 63 1014.1
20260905204601 28 68 4.8 14.5 0.00 0.00 0.00 62 1014.4
20260905203054 28 73 0.0 8.0 0.00 0.00 0.00 64 1014.7
20260905201551 28 92 0.0 6.4 0.00 0.00 0.00 64 1015.1
20260905200049 28 27 1.6 8.0 0.00 0.00 0.00 66 1015.2
20260905194546 27 352 1.6 6.4 0.00 0.00 0.00 67 1015.5
20260905193043 27 230 0.0 8.0 0.00 0.00 0.00 68 1015.7